200 serials | excel password unlocker 4.0.2.3 registration code

Date Name Success Rate
2009-10-17 06:20:18 Checkbook For Excel V4.2 15%
2009-10-17 06:20:18 Checkbook For Excel V5.2 15%
2009-10-17 06:20:18 Checkbook For Excel V5.2a 21%
2009-10-17 06:20:38 ConcreteCOST Estimator For Excel V2.01 13%
2009-10-17 06:22:21 Excel Merger V3.0-ONE 18%
2009-10-17 06:22:21 Excel Recovery V2005 43%
2009-10-17 06:22:21 Excel To PDF Converter V1.0 14%
2009-10-17 06:22:21 Excel To PDF Converter V3.0 20%
2009-10-17 06:22:21 Excel To PDF Converter V3.0.032605 20%
2009-10-17 06:22:21 Excel To PDF Converter V3.0.052405 14%
2009-10-17 06:23:39 GeneralCOST Estimator For Excel V3.02.11082005 22%
2009-10-17 06:24:21 Handicap Manager For Excel V3.6d 20%
2009-10-17 06:24:26 HomeCOST Estimator For Excel V4.00 0%
2009-10-17 06:27:02 Lazarus Registration DLL V1.0 59%
2009-10-17 06:29:58 PaintCOST Estimator For Excel V4.00 0%
2009-10-17 06:31:28 R-Excel V1.2 0%
2009-10-17 06:31:33 RemodelCOST Estimator For Excel V5.0 40%
2009-10-17 06:31:33 RepairCOST Estimator For Excel V3.50.20060103 0%
2009-10-17 06:31:33 RepairCOST Estimator For Excel V4.0 0%
2009-10-17 06:31:38 RoofCOST Estimator For Excel V4.01 0%
2009-10-17 06:32:24 Sobolsoft Excel FTP V7.0 0%
2009-10-17 06:32:24 Sobolsoft Excel Import Multiple Excel Files V7.0 0%
2009-10-17 06:32:55 Synkronizer For Excel V9.1 100%
2009-10-22 23:27:20 AnyDVD 4.0.2.3 0%
2009-10-22 23:27:21 Ardamax Keylogger 2.9 Registration 56%
2009-10-22 23:44:48 Babylon 4.0.2.3 0%
2009-10-22 23:44:48 Babylon Pro 4.0.2.3 0%
2009-10-22 23:44:48 Babylon Translator Pro 4.0.2.3 BY EFC87 0%
2009-10-22 23:44:48 Babylon-Pro 4.0.2.3 0%
2009-10-22 23:45:51 Checkbook For Excel 1.41b 0%
2009-10-22 23:45:51 Checkbook For Excel V5.1 0%
2009-10-22 23:45:51 Checkbook For Excel V5.2 0%
2009-10-22 23:45:53 Code Source 34%
2009-10-22 23:45:56 Create For Excel V3.0.0.322 0%
2009-10-22 23:47:42 Excel 1.0.1019 0%
2009-10-22 23:47:42 Excel Key 7.0.1180 0%
2009-10-22 23:47:42 Excel Merger V3.0 Keymaker 0%
2009-10-22 23:47:42 Excel Password Recovery Master 3.0 65%
2009-10-22 23:47:42 Excel Recovery 2005 60%
2009-10-22 23:47:42 Excel To PDF Converter 1.0 0%
2009-10-22 23:47:42 Excel To PDF Converter 3.0 0%
2009-10-22 23:47:42 Excel To PDF Converter 3.0.032605 0%
2009-10-22 23:47:42 Excel To PDF Converter 3.0.052405 0%
2009-10-22 23:47:42 Excel To PDF Converter V3.0 0%
2009-10-22 23:47:59 GeneralCost Estimator For Excel 2.2 0%
2009-10-22 23:47:59 GeneralCOST Estimator For Excel 3.02.11082005 0%
2009-10-22 23:48:00 Golf Tracker For Excel 1.2a 0%
2009-10-22 23:48:00 Golf Tracker For Excel V1.3 0%
2009-10-22 23:48:06 Handicap Manager For Excel 3.6d 0%
2009-10-22 23:48:06 Handicap Manager For Excel V3.7a 0%
2009-10-22 23:48:17 Internet Download Manager Registration 50%
2009-10-22 23:48:48 MemoriesonTV Registration 0%
2009-10-22 23:48:49 Microsoft Registration Hacker - 39%
2009-10-22 23:49:02 Norton Internet Security 2005 Registration Guide 0%
2009-10-22 23:49:19 PaintCOST Estimator For Excel 4.00 0%
2009-10-22 23:49:19 Passware Excel Password Recovery Key 6.3.859 60%
2009-10-22 23:49:19 Passware Excel Password Recovery Key 6.5.918 86%
2009-10-22 23:49:42 Registration Wizard 56%
2009-10-22 23:49:42 RemodelCOST Estimator For Excel 3.0111082005 0%
2009-10-22 23:49:51 Scheduler For Excel 1.0 0%
2009-10-22 23:49:55 Sobolsoft Excel Import Multiple Excel Files V7.0 0%
2009-10-22 23:49:57 SoudForge ALL (No Registration Requiered) 0%
2009-10-22 23:50:08 Task Manager For Excel V2.3 0%
2009-10-22 23:50:12 Tools For Excel Tables For MS Excel V1.1 0%
2009-10-22 23:50:26 Valve's Registration Armor Key-Gen 60%
2011-09-08 09:57:34 Accent Excel Password Recovery v2.10 97%
2011-09-08 09:58:40 Acoustica Mixcraft v1.10 Build 15 Registration Info by MaBi 60%
2011-09-08 10:01:14 Advanced Excel 2000 Password Recovery (null) 0%
2011-09-08 10:01:14 Advanced Excel 2000 Password Recovery 1.11 0%
2011-09-08 10:01:14 Advanced Excel 2000 Password Recovery v1.11 0%
2011-09-08 10:01:14 Advanced Excel 95 Password Recovery 1.2 0%
2011-09-08 10:01:14 Advanced Excel 95 Password Recovery v1.2 0%
2011-09-08 10:01:14 Advanced Excel Select v1.4 67%
2011-09-08 10:06:47 AnetHelpTool v4.02 Registration 60%
2011-09-08 10:18:18 Babylon Pro 4.0.2.3 0%
2011-09-08 10:21:42 Browserola v1.01 Temp. Registration 0%
2011-09-08 10:22:13 ByeLines Registration 60%
2011-09-08 10:25:39 Checkbook for Excel v3.5b 0%
2011-09-08 10:25:56 Cheyenne Bitware V4.0 Registration Number 60%
2011-09-08 10:27:32 Code 55%
2011-09-08 10:27:55 Color Palette for Excel 1.0.1 0%
2011-09-08 10:28:16 Compare Excel Files 1.0 40%
2011-09-08 10:28:48 Convert Excel To DBF 29.12.26 0%
2011-09-08 10:28:48 Convert Excel To TXT 29.12.29 0%
2011-09-08 10:42:09 DAS Registration 1.5.2 69%
2011-09-08 10:42:09 DAS Registration For CW5 0%
2011-09-08 10:42:09 DAS Registration v1.5.2 0%
2011-09-08 10:42:17 DataMiner 3D for Excel 1.2 0%
2011-09-08 10:42:17 DataMiner 3D for Excel v1.2 0%
2011-09-08 10:44:24 Doctris v1.0 UNLOCKER 60%
2011-09-08 10:49:57 ESS Code 0%
2011-09-08 10:49:57 ESS-Code 0%
2011-09-08 10:50:24 Excel 0%
2011-09-08 10:50:24 Excel (null) 0%
2011-09-08 10:50:24 Excel 1990-2000 0%
2011-09-08 10:50:24 Excel 2000 0%
2011-09-08 10:50:24 Excel 3.0 0%
2011-09-08 10:50:24 Excel 4.0 0%
2011-09-08 10:50:24 Excel 5.0c 0%
2011-09-08 10:50:26 Excel 95 Password Recovery Advanced v1.2 0%
2011-09-08 10:50:26 Excel EIS Builder 1.1 0%
2011-09-08 10:50:26 Excel Key 7.0.1180 0%
2011-09-08 10:50:26 Excel Rechnung v2.5 German 0%
2011-09-08 10:50:26 Excel Recovery 2005 0%
2011-09-08 10:50:26 Excel Recovery v1.0 0%
2011-09-08 10:50:26 Excel Sheets Separator 10.1.2 0%
2011-09-08 10:50:26 Excel TeleTools Express 3.04 0%
2011-09-08 10:50:26 Excel TeleTools Express v3.04 0%
2011-09-08 10:50:26 Excel to PDF Converter 1.0 0%
2011-09-08 10:50:26 Excel to PDF Converter v1.00 0%
2011-09-08 10:50:26 Excel to PDF Converter v3.0 0%
2011-09-08 10:50:26 Excel UK 7.0 0%
2011-09-08 10:50:26 Excel UK v7.0 0%
2011-09-08 10:50:26 Excel v3.0 0%
2011-09-08 10:50:26 Excel v4.0 0%
2011-09-08 10:50:26 Excel v5.0c 0%
2011-09-08 10:50:26 Excel Y2k Checker 2.1 0%
2011-09-08 10:55:43 FloorCost Estimator for Excel 2.0 0%
2011-09-08 10:55:43 FloorCost Estimator for Excel v2.0 0%
2011-09-08 10:56:11 FontLook v3.1 Registration Code 86%
2011-09-08 10:57:42 Ftgate Registration 63%
2011-09-08 11:03:08 Golf Tracker for Excel v1.2a 0%
2011-09-08 11:03:08 Golf Tracker for Excel v1.3 0%
2011-09-08 11:05:47 Handicap Manager for Excel v3.1a 0%
2011-09-08 11:05:47 Handicap Manager for Excel v3.6a 0%
2011-09-08 11:05:47 Handicap Manager for Excel v3.6d 0%
2011-09-08 11:06:35 Hexer Code 0%
2011-09-08 11:09:29 Hotfax Code 0%
2011-09-08 11:14:16 IM Password Unlocker 3.0.1.1 0%
2011-09-08 11:15:16 Infodex v2.10 Registration 0%
2011-09-08 11:16:28 Internet Explorer Password Unlocker 3.0.1.4 0%
2011-09-08 11:16:51 Investment Valuation for Excel 20061002 0%
2011-09-08 11:21:45 KGL UNLOCKER 0%
2011-09-08 11:21:45 KGL Unlocker 1.11 0%
2011-09-08 11:21:45 KGL Unlocker v1.11 0%
2011-09-08 11:24:46 L3ENC Code 0%
2011-09-08 11:25:08 Lazarus Registration DLL v1.0 0%
2011-09-08 11:27:46 Mac Opener v3.0 Registration 57%
2011-09-08 11:30:16 MediaBlaze 98 v1.01 Win95/NT User: delphic Registration 0%
2011-09-08 11:31:23 Microsoft Excel v5.0c for Windows 0%
2011-09-08 11:31:23 Microsoft Excel v5.0c Win 0%
2011-09-08 11:31:51 Microsoft Registration Hacker 0%
2011-09-08 11:31:51 Microsoft Registration Hacker - 0%
2011-09-08 11:31:51 Microsoft Registration Hacker MSREGHACK 80%
2011-09-08 11:31:51 Microsoft Registration HackerMSREGHACK 0%
2011-09-08 11:31:51 Microsoft SQL Server Password Unlocker 3.0.2.5 69%
2011-09-08 11:31:51 Microsoft SQL Server Password Unlocker 3.1.0.0 0%
2011-09-08 11:31:51 Microsoft Visual Basic 5 registration cd key 72%
2011-09-08 11:32:04 MicrosoŸt ExCel v50c for Windows 0%
2011-09-08 11:32:07 Microstation v5.xx.xx & 95 FULL REGISTRATION 48%
2011-09-08 11:32:59 mIRC v4.5+ Registration 60%
2011-09-08 11:32:59 mIRC v4.52 Registration 60%
2011-09-08 11:42:43 Nic O'Matic 1.6 Registration Code 50%
2011-09-08 11:42:43 Nic O'Matic v1.6 Registration Code 55%
2011-09-08 12:28:29 Passware Excel Password Recovery Key 6.3.859 0%
2011-09-08 12:28:29 Passware Excel Password Recovery Key 6.5.918 0%
2011-09-08 12:28:29 Passware Excel Password Recovery Key v6.3.859 0%
2011-09-08 12:28:29 Passware Excel Password Recovery Key v6.5.918 20%
2011-09-08 12:28:40 Password Pro v2.0.0 Code 0%
2011-09-08 12:34:30 Pluck-It Code 0%
2011-09-08 12:34:30 PluckIt! Code 0%
2011-09-08 12:34:57 PolyTrans V1.2E Registration Activator CD-Key 62%
2011-09-08 12:34:57 PolyView v2.9b16 Registration 0%
2011-09-08 12:35:55 PowerDVD Code 55%
2011-09-08 12:36:39 Prime for Excel 2000 v1.0 0%
2011-09-08 12:37:02 Quant v2.0 Registration 0%
2011-09-08 12:38:35 Project Manager for Excel 3.2b 0%
2011-09-08 12:41:14 Registration Suite 1.0 60%
2011-09-08 12:41:14 Registration Suite v1.0 60%
2011-09-08 12:41:14 Registration Wizard Pro 5.01 0%
2011-09-08 12:41:14 Registration Wizard Pro v5.01 60%
2011-09-08 12:45:41 Scheduler for Excel 1.1 0%
2011-09-08 12:45:41 Scheduler for Excel v1.0 0%
2011-09-08 12:54:09 Time Registration (German) 1.10 0%
2011-09-08 12:54:14 TimeSlips 10.5 enterprise - with registration code! 0%
2011-09-08 12:59:30 Super Collapse Registration 100%
2011-09-08 13:08:41 Universal SP Unlocker Update 5.0.1 0%
2011-09-08 13:08:41 Universal SP Unlocker Update v5.0.1 0%
2011-09-08 13:16:51 Webspider Code 0%
2011-09-08 13:18:59 WinHacker 95 v2.02 Registration 57%
2011-09-08 13:20:07 Winzip9.0 excel 80%
2011-09-08 13:23:15 Yipe! II for Windows Registration #154 0%
2012-12-12 05:06:04 camfrog CODE : 28%
2012-12-12 05:36:33 Checkbook For Excel v5.3 0%
2012-12-12 06:21:22 Convert Excel To CSV v29.12.28 0%
2012-12-12 06:21:22 Convert Excel To DBF v29.12.26 0%
2012-12-12 06:21:22 Convert Excel to TXT v29.12.29 0%
2012-12-12 08:07:32 Download avast 5.0.667 Antivirus registration 0%
2012-12-12 11:11:48 Excel Password Recovery Master 3.5 53%
2012-12-12 11:11:54 Excel Sheets Copier v29.11.15 0%
2012-12-12 11:56:59 Finanzplan für Excel 0%
2012-12-12 13:30:38 Golf Tracker For Excel v2.0 0%
2012-12-12 13:49:28 Handicap Manager For Excel v5.1 0%
2012-12-12 16:55:34 Kernel Recovery for Excel 0%
2012-12-12 16:57:20 Kickback code 0%
2012-12-12 19:18:30 Merge Excel Workbooks v29.11.2 80%
2012-12-12 19:25:43 Microsoft Excel 2010 0%
2012-12-12 19:40:26 Microsoft Visual Basic 2008 Express Edition Registration key 20%
2012-12-12 20:55:03 MS SQL Server Password Unlocker v3.1.0.0 0%
2012-12-12 20:55:06 MS SQL Server Password Unlocker v3.2 0%